TimeEDT,TemperatureF,Dew PointF,Humidity,Sea Level PressureIn,VisibilityMPH,Wind Direction,Wind SpeedMPH,Gust SpeedMPH,PrecipitationIn,Events,Conditions,WindDirDegrees,DateUTC
12:15 AM,58.3,46.4,65,30.19,10.0,ENE,6.9,-,N/A,,Overcast,70,2013-05-04 04:15:00
12:35 AM,57.7,46.0,65,30.19,10.0,East,8.1,-,N/A,,Overcast,80,2013-05-04 04:35:00
12:55 AM,57.0,44.4,63,30.19,10.0,East,12.7,19.6,N/A,,Overcast,80,2013-05-04 04:55:00
1:15 AM,56.3,43.7,63,30.19,10.0,East,5.8,17.3,N/A,,Overcast,90,2013-05-04 05:15:00
1:35 AM,55.4,43.0,63,30.18,10.0,ENE,5.8,17.3,N/A,,Overcast,70,2013-05-04 05:35:00
1:55 AM,54.7,43.0,65,30.18,10.0,ENE,8.1,-,N/A,,Overcast,60,2013-05-04 05:55:00
2:15 AM,54.0,43.0,66,30.18,10.0,ENE,10.4,18.4,N/A,,Overcast,70,2013-05-04 06:15:00
2:35 AM,53.1,42.8,68,30.18,10.0,ENE,10.4,19.6,N/A,,Overcast,70,2013-05-04 06:35:00
2:55 AM,52.3,43.2,71,30.17,10.0,ENE,5.8,-,N/A,,Mostly Cloudy,60,2013-05-04 06:55:00
3:15 AM,52.0,41.9,69,30.17,-9999.0,ENE,11.5,-,N/A,,Unknown,70,2013-05-04 07:15:00
3:35 AM,51.1,41.5,70,30.18,10.0,ENE,8.1,-,N/A,,Scattered Clouds,60,2013-05-04 07:35:00
3:55 AM,50.9,41.4,70,30.19,10.0,ENE,4.6,9.2,N/A,,Mostly Cloudy,60,2013-05-04 07:55:00
4:15 AM,50.0,41.5,73,30.19,10.0,NE,8.1,-,N/A,,Mostly Cloudy,50,2013-05-04 08:15:00
4:35 AM,49.5,40.8,72,30.18,10.0,NE,5.8,-,N/A,,Mostly Cloudy,40,2013-05-04 08:35:00
4:55 AM,49.5,40.6,72,30.18,10.0,NNE,5.8,-,N/A,,Mostly Cloudy,30,2013-05-04 08:55:00
5:15 AM,49.5,40.6,72,30.19,10.0,NE,5.8,-,N/A,,Overcast,40,2013-05-04 09:15:00
5:35 AM,49.3,41.0,73,30.18,10.0,NE,5.8,-,N/A,,Overcast,40,2013-05-04 09:35:00
5:55 AM,49.1,41.2,74,30.19,10.0,NNE,3.5,-,N/A,,Overcast,20,2013-05-04 09:55:00
6:15 AM,49.1,41.4,75,30.18,10.0,NNE,5.8,-,N/A,,Overcast,20,2013-05-04 10:15:00
6:35 AM,48.7,41.9,77,30.18,10.0,NE,4.6,-,N/A,,Overcast,40,2013-05-04 10:35:00
6:55 AM,48.9,42.1,77,30.18,10.0,NNE,3.5,-,N/A,,Overcast,30,2013-05-04 10:55:00
7:15 AM,48.7,42.3,78,30.19,10.0,NE,3.5,-,N/A,,Overcast,40,2013-05-04 11:15:00
7:35 AM,49.1,42.4,78,30.19,10.0,NE,3.5,-,N/A,,Overcast,40,2013-05-04 11:35:00
7:55 AM,49.1,42.6,78,30.19,10.0,NE,4.6,-,N/A,,Overcast,40,2013-05-04 11:55:00
8:15 AM,49.1,42.6,78,30.19,10.0,NNE,4.6,-,N/A,,Overcast,30,2013-05-04 12:15:00
8:35 AM,49.3,43.0,79,30.19,10.0,NE,6.9,-,N/A,,Overcast,50,2013-05-04 12:35:00
8:55 AM,49.5,42.8,78,30.19,10.0,East,3.5,-,N/A,,Overcast,80,2013-05-04 12:55:00
9:15 AM,49.6,42.8,77,30.19,10.0,ENE,10.4,16.1,N/A,,Overcast,70,2013-05-04 13:15:00
9:35 AM,49.6,42.8,77,30.18,10.0,ENE,6.9,-,N/A,,Overcast,60,2013-05-04 13:35:00
9:55 AM,50.2,43.2,77,30.18,10.0,NE,5.8,-,N/A,,Overcast,50,2013-05-04 13:55:00
10:15 AM,50.5,43.2,76,30.18,10.0,ENE,5.8,-,N/A,,Overcast,60,2013-05-04 14:15:00
10:35 AM,50.9,43.7,76,30.18,10.0,ENE,9.2,-,N/A,,Overcast,70,2013-05-04 14:35:00
10:55 AM,50.9,43.5,76,30.18,10.0,ENE,8.1,16.1,N/A,,Overcast,60,2013-05-04 14:55:00
11:15 AM,51.1,43.9,76,30.18,10.0,NE,5.8,-,N/A,,Overcast,50,2013-05-04 15:15:00
11:35 AM,51.1,44.2,77,30.18,10.0,NE,5.8,-,N/A,,Unknown,50,2013-05-04 15:35:00
11:55 AM,50.5,45.5,83,30.18,7.0,NE,10.4,-,N/A,Rain,Rain,50,2013-05-04 15:55:00
12:15 PM,49.8,47.7,92,30.17,3.0,NE,5.8,-,N/A,Rain,Light Rain,40,2013-05-04 16:15:00
12:35 PM,50.9,48.4,91,30.16,10.0,NNE,6.9,-,N/A,,Overcast,30,2013-05-04 16:35:00
12:55 PM,51.3,48.0,89,30.16,10.0,North,4.6,-,N/A,,Overcast,360,2013-05-04 16:55:00
1:15 PM,52.2,47.5,84,30.14,10.0,NNE,5.8,-,N/A,,Overcast,20,2013-05-04 17:15:00
1:35 PM,53.8,47.1,78,30.14,10.0,NE,9.2,-,N/A,,Overcast,50,2013-05-04 17:35:00
1:55 PM,55.4,47.7,75,30.14,10.0,NE,6.9,-,N/A,,Overcast,40,2013-05-04 17:55:00
2:15 PM,55.8,44.8,67,30.14,10.0,ENE,9.2,-,N/A,,Overcast,70,2013-05-04 18:15:00
2:35 PM,55.6,44.6,67,30.13,10.0,ENE,4.6,-,N/A,,Overcast,60,2013-05-04 18:35:00
2:55 PM,55.9,45.0,67,30.12,10.0,NE,6.9,-,N/A,,Overcast,50,2013-05-04 18:55:00
3:15 PM,57.2,45.0,64,30.12,10.0,NE,10.4,-,N/A,,Overcast,40,2013-05-04 19:15:00
3:35 PM,57.6,45.1,63,30.10,10.0,ENE,11.5,16.1,N/A,,Overcast,60,2013-05-04 19:35:00
3:55 PM,59.0,45.5,61,30.09,10.0,ENE,8.1,-,N/A,,Mostly Cloudy,70,2013-05-04 19:55:00
4:15 PM,59.4,45.0,59,30.08,10.0,ENE,11.5,-,N/A,,Mostly Cloudy,70,2013-05-04 20:15:00
4:35 PM,60.3,44.8,57,30.08,10.0,East,8.1,-,N/A,,Mostly Cloudy,90,2013-05-04 20:35:00
4:55 PM,60.3,45.0,57,30.07,10.0,ENE,9.2,-,N/A,,Overcast,70,2013-05-04 20:55:00
5:15 PM,59.5,44.4,57,30.07,10.0,ENE,8.1,-,N/A,,Overcast,60,2013-05-04 21:15:00
5:35 PM,59.2,45.3,60,30.07,10.0,East,8.1,-,N/A,,Overcast,90,2013-05-04 21:35:00
5:55 PM,59.0,45.0,60,30.08,10.0,East,6.9,-,N/A,,Overcast,90,2013-05-04 21:55:00
6:15 PM,59.0,45.7,61,30.07,10.0,ENE,9.2,-,N/A,,Overcast,70,2013-05-04 22:15:00
6:35 PM,59.0,45.3,60,30.07,10.0,East,5.8,-,N/A,,Overcast,80,2013-05-04 22:35:00
6:55 PM,58.6,45.7,62,30.07,10.0,ENE,6.9,-,N/A,,Overcast,70,2013-05-04 22:55:00
7:15 PM,58.1,45.3,62,30.07,10.0,ENE,10.4,17.3,N/A,,Scattered Clouds,70,2013-05-04 23:15:00
7:35 PM,57.7,45.7,64,30.07,10.0,ENE,5.8,-,N/A,,Scattered Clouds,60,2013-05-04 23:35:00
7:55 PM,57.2,46.4,67,30.06,10.0,NE,8.1,18.4,N/A,,Mostly Cloudy,50,2013-05-04 23:55:00
8:15 PM,56.8,46.4,68,30.07,-9999.0,ENE,10.4,-,N/A,,Unknown,70,2013-05-05 00:15:00
8:35 PM,56.5,46.4,69,30.07,10.0,NE,8.1,16.1,N/A,,Overcast,50,2013-05-05 00:35:00
8:55 PM,56.1,46.0,69,30.08,10.0,ENE,8.1,-,N/A,,Unknown,60,2013-05-05 00:55:00
9:15 PM,55.4,45.7,70,30.08,10.0,NE,11.5,17.3,N/A,,Overcast,50,2013-05-05 01:15:00